カタログに戻る

STARLINK-5334

運用中通信VLEO
NORAD 56509·PAYLOAD·🇺🇸 United States

打ち上げ May 14, 2023 から Cape Canaveral Space Force Station

Loading…

次のパス (今後24時間)

TLE

最新Source: CelesTrak SupGP

元期: Sep 14, 2026, 20:48 UTC

1 56509C 23065G   26257.86715278  .00031005  00000+0  11231-2 0  2572
2 56509  42.9994 223.8720 0001170 252.5997 146.1266 15.27560607    12

AllMySatでSTARLINK-5334をリアルタイム追跡

Download on the App Store